QPF
0.01 0.03 0.04 0.02 0.02 0.02 0.02 0.02 0.03 0.02 0.01 0.02 0.04 0.04 0.03 0.01 0.00 0.01 0.01 0.02 0.01 0.01 0.01 0.01 0.02 0.01 0.00 0.00 0.00 0.00 0.00 0.00 0.00 0.00 0.00 0.00 0.00 0.01 0.01 0.01 0.00 0.00 0.00 0.00
0.04 0.04 0.01 0.01 0.02 0.01 0.02 0.04 0.04 0.02 0.01 0.01 0.02 0.02 0.02 0.01 0.01 0.00 0.01 0.01 0.01 0.01 0.00 0.01 0.01 0.01 0.00 0.00 0.00 0.00 0.00 0.00 0.00 0.00 0.00 0.00 0.00 0.00 0.00 0.00 0.00 0.00 0.00 0.00
0.04 0.02 0.00 0.01 0.01 0.02 0.02 0.04 0.04 0.03 0.03 0.02 0.03 0.03 0.02 0.01 0.01 0.01 0.01 0.01 0.01 0.01 0.00 0.01 0.00 0.01 0.00 0.00 0.00 0.00 0.00 0.00 0.00 0.00 0.00 0.00 0.00 0.00 0.00 0.00 0.00 0.00 0.00 0.00
0.02 0.01 0.00 0.00 0.01 0.02 0.04 0.02 0.02 0.02 0.04 0.05 0.04 0.06 0.04 0.01 0.01 0.01 0.01 0.00 0.00 0.01 0.01 0.00 0.01 0.01 0.01 0.00 0.00 0.00 0.00 0.00 0.00 0.00 0.00 0.00 0.00 0.00 0.00 0.00 0.00 0.00 0.00 0.00
0.03 0.01 0.01 0.01 0.01 0.02 0.03 0.01 0.02 0.02 0.03 0.04 0.03 0.05 0.06 0.03 0.01 0.01 0.00 0.00 0.00 0.01 0.01 0.01 0.00 0.01 0.01 0.01 0.01 0.00 0.00 0.00 0.00 0.00 0.00 0.00 0.00 0.00 0.00 0.00 0.00 0.00 0.00 0.00
0.02 0.00 0.01 0.01 0.00 0.01 0.01 0.01 0.02 0.02 0.03 0.06 0.03 0.06 0.06 0.03 0.01 0.00 0.00 0.00 0.00 0.01 0.01 0.01 0.00 0.00 0.01 0.01 0.01 0.00 0.00 0.00 0.00 0.00 0.00 0.00 0.00 0.00 0.00 0.00 0.00 0.00 0.00 0.00
0.03 0.01 0.01 0.00 0.01 0.01 0.02 0.05 0.07 0.07 0.09 0.07 0.02 0.03 0.04 0.02 0.00 0.00 0.00 0.00 0.00 0.00 0.00 0.00 0.00 0.00 0.00 0.00 0.00 0.01 0.01 0.00 0.00 0.00 0.00 0.00 0.00 0.00 0.00 0.00 0.00 0.00 0.00 0.00
0.05 0.04 0.01 0.01 0.02 0.04 0.03 0.06 0.09 0.10 0.08 0.05 0.01 0.01 0.01 0.00 0.00 0.00 0.00 0.00 0.00 0.00 0.00 0.00 0.00 0.00 0.00 0.00 0.00 0.00 0.00 0.00 0.00 0.00 0.00 0.00 0.00 0.00 0.00 0.00 0.00 0.00 0.00 0.00
0.05 0.05 0.01 0.01 0.03 0.04 0.03 0.04 0.05 0.06 0.04 0.03 0.01 0.00 0.00 0.00 0.00 0.00 0.00 0.00 0.00 0.00 0.00 0.00 0.00 0.00 0.00 0.00 0.00 0.00 0.00 0.00 0.00 0.00 0.00 0.00 0.00 0.00 0.00 0.00 0.00 0.00 0.00 0.00
0.03 0.03 0.01 0.01 0.02 0.02 0.01 0.02 0.03 0.05 0.04 0.04 0.02 0.01 0.01 0.00 0.00 0.00 0.00 0.01 0.01 0.01 0.01 0.00 0.00 0.00 0.00 0.00 0.00 0.00 0.00 0.00 0.00 0.00 0.00 0.00 0.00 0.00 0.00 0.00 0.00 0.00 0.00 0.00
0.01 0.02 0.02 0.00 0.01 0.00 0.00 0.01 0.02 0.04 0.02 0.02 0.01 0.00 0.00 0.00 0.01 0.01 0.01 0.01 0.02 0.02 0.01 0.01 0.00 0.00 0.00 0.00 0.00 0.00 0.00 0.00 0.00 0.00 0.00 0.00 0.00 0.00 0.00 0.00 0.00 0.00 0.00 0.00
0.01 0.01 0.01 0.01 0.00 0.00 0.00 0.00 0.01 0.03 0.02 0.01 0.01 0.00 0.00 0.00 0.00 0.00 0.00 0.01 0.02 0.02 0.01 0.01 0.00 0.00 0.00 0.00 0.00 0.00 0.00 0.00 0.00 0.00 0.00 0.00 0.00 0.00 0.00 0.00 0.00 0.00 0.00 0.00
0.01 0.01 0.03 0.02 0.01 0.00 0.00 0.00 0.01 0.02 0.01 0.01 0.01 0.00 0.00 0.00 0.00 0.00 0.00 0.00 0.01 0.01 0.00 0.00 0.00 0.00 0.00 0.00 0.00 0.00 0.00 0.00 0.00 0.00 0.00 0.00 0.00 0.00 0.00 0.00 0.00 0.00 0.00 0.00
0.01 0.01 0.02 0.02 0.01 0.00 0.00 0.00 0.00 0.01 0.01 0.00 0.00 0.00 0.00 0.00 0.00 0.00 0.00 0.00 0.00 0.00 0.00 0.00 0.00 0.00 0.00 0.00 0.00 0.00 0.00 0.00 0.00 0.00 0.00 0.00 0.00 0.00 0.00 0.00 0.00 0.00 0.00 0.00
0.00 0.01 0.00 0.00 0.00 0.00 0.00 0.00 0.00 0.00 0.01 0.00 0.00 0.00 0.00 0.00 0.00 0.00 0.00 0.00 0.00 0.00 0.00 0.00 0.00 0.00 0.00 0.00 0.00 0.00 0.00 0.00 0.00 0.00 0.00 0.00 0.00 0.00 0.00 0.00 0.00 0.00 0.00 0.00
0.00 0.00 0.00 0.00 0.00 0.00 0.00 0.00 0.00 0.00 0.00 0.00 0.00 0.00 0.00 0.00 0.00 0.00 0.00 0.00 0.00 0.00 0.00 0.00 0.00 0.00 0.00 0.00 0.00 0.00 0.00 0.00 0.00 0.00 0.00 0.00 0.00 0.00 0.00 0.00 0.00 0.00 0.00 0.00
0.00 0.00 0.00 0.00 0.00 0.00 0.00 0.00 0.00 0.00 0.00 0.00 0.00 0.00 0.00 0.00 0.00 0.00 0.00 0.00 0.00 0.00 0.00 0.00 0.00 0.00 0.00 0.00 0.00 0.00 0.00 0.00 0.00 0.00 0.00 0.00 0.00 0.00 0.00 0.00 0.00 0.00 0.00 0.00
0.00 0.00 0.00 0.00 0.00 0.00 0.00 0.00 0.00 0.00 0.00 0.00 0.00 0.00 0.00 0.00 0.00 0.00 0.00 0.00 0.00 0.00 0.00 0.00 0.00 0.00 0.00 0.00 0.00 0.00 0.00 0.00 0.00 0.00 0.00 0.00 0.00 0.00 0.00 0.00 0.00 0.00 0.00 0.00
0.00 0.00 0.00 0.00 0.01 0.00 0.00 0.00 0.00 0.00 0.00 0.00 0.00 0.00 0.00 0.00 0.00 0.00 0.00 0.00 0.00 0.00 0.00 0.00 0.00 0.00 0.00 0.00 0.00 0.00 0.00 0.00 0.00 0.00 0.00 0.00 0.00 0.00 0.00 0.00 0.00 0.00 0.00 0.00
0.00 0.00 0.00 0.00 0.01 0.00 0.00 0.00 0.00 0.00 0.00 0.00 0.00 0.00 0.00 0.00 0.00 0.00 0.00 0.00 0.00 0.00 0.00 0.00 0.00 0.00 0.00 0.00 0.00 0.00 0.00 0.00 0.00 0.00 0.00 0.00 0.00 0.00 0.00 0.00 0.00 0.00 0.00 0.00
0.00 0.00 0.00 0.00 0.01 0.00 0.00 0.00 0.00 0.00 0.00 0.00 0.00 0.00 0.00 0.00 0.00 0.00 0.00 0.00 0.00 0.00 0.00 0.00 0.00 0.00 0.00 0.00 0.00 0.00 0.00 0.00 0.00 0.00 0.00 0.00 0.00 0.00 0.00 0.00 0.00 0.00 0.00 0.00
0.00 0.00 0.00 0.00 0.00 0.00 0.00 0.00 0.00 0.00 0.00 0.00 0.00 0.00 0.00 0.00 0.00 0.00 0.00 0.00 0.00 0.00 0.00 0.00 0.00 0.00 0.00 0.00 0.00 0.00 0.00 0.00 0.00 0.00 0.00 0.00 0.00 0.00 0.00 0.00 0.00 0.00 0.00 0.00
0.00 0.00 0.00 0.00 0.00 0.00 0.00 0.00 0.00 0.00 0.00 0.00 0.00 0.00 0.00 0.00 0.00 0.00 0.00 0.00 0.00 0.00 0.00 0.00 0.00 0.00 0.00 0.00 0.00 0.00 0.00 0.00 0.00 0.00 0.00 0.00 0.00 0.00 0.00 0.00 0.00 0.00 0.00 0.00
0.00 0.00 0.00 0.00 0.00 0.00 0.00 0.00 0.00 0.00 0.00 0.00 0.00 0.00 0.00 0.00 0.00 0.00 0.00 0.00 0.00 0.00 0.00 0.00 0.00 0.00 0.00 0.00 0.00 0.00 0.00 0.00 0.00 0.00 0.00 0.00 0.00 0.00 0.00 0.00 0.00 0.00 0.00 0.00
0.00 0.00 0.00 0.00 0.00 0.00 0.00 0.00 0.00 0.00 0.00 0.00 0.00 0.00 0.00 0.00 0.00 0.00 0.00 0.00 0.00 0.00 0.00 0.00 0.00 0.00 0.00 0.00 0.00 0.00 0.00 0.00 0.00 0.00 0.00 0.00 0.00 0.00 0.00 0.00 0.00 0.00 0.00 0.00
0.00 0.00 0.00 0.00 0.00 0.00 0.00 0.00 0.00 0.00 0.00 0.00 0.00 0.00 0.00 0.00 0.00 0.00 0.00 0.00 0.00 0.00 0.00 0.00 0.00 0.00 0.00 0.00 0.00 0.00 0.00 0.00 0.00 0.00 0.00 0.00 0.00 0.00 0.00 0.00 0.00 0.00 0.00 0.00
MSLP
1009.35 1009.93 1010.39 1010.71 1010.92 1011.03 1011.10 1011.15 1011.21 1011.30 1011.40 1011.48 1011.52 1011.48 1011.36 1011.15 1010.87 1010.56 1010.26 1010.02 1009.88 1009.84 1009.92 1010.11 1010.39 1010.72 1011.07 1011.42 1011.77 1012.09 1012.40 1012.68 1012.93 1013.15 1013.34 1013.48 1013.56 1013.59 1013.57 1013.50 1013.41 1013.32 1013.23 1013.16
1009.70 1010.12 1010.43 1010.63 1010.74 1010.82 1010.89 1011.00 1011.15 1011.34 1011.53 1011.70 1011.78 1011.77 1011.64 1011.39 1011.07 1010.72 1010.40 1010.14 1010.00 1009.99 1010.09 1010.31 1010.59 1010.91 1011.23 1011.55 1011.85 1012.14 1012.42 1012.70 1012.97 1013.22 1013.46 1013.65 1013.78 1013.83 1013.82 1013.74 1013.62 1013.48 1013.36 1013.26
1009.88 1010.13 1010.28 1010.36 1010.41 1010.47 1010.58 1010.77 1011.03 1011.34 1011.65 1011.91 1012.06 1012.07 1011.93 1011.66 1011.30 1010.92 1010.57 1010.31 1010.18 1010.18 1010.31 1010.53 1010.81 1011.11 1011.41 1011.68 1011.93 1012.17 1012.42 1012.68 1012.96 1013.24 1013.51 1013.75 1013.92 1014.01 1014.01 1013.92 1013.79 1013.63 1013.47 1013.35
1009.89 1009.98 1010.01 1010.01 1010.02 1010.10 1010.28 1010.58 1010.97 1011.42 1011.85 1012.20 1012.41 1012.44 1012.30 1012.00 1011.61 1011.19 1010.82 1010.54 1010.41 1010.42 1010.56 1010.79 1011.07 1011.35 1011.61 1011.83 1012.02 1012.21 1012.40 1012.63 1012.90 1013.19 1013.49 1013.76 1013.96 1014.08 1014.10 1014.03 1013.89 1013.72 1013.55 1013.41
1009.80 1009.77 1009.70 1009.65 1009.66 1009.80 1010.08 1010.51 1011.04 1011.62 1012.17 1012.60 1012.86 1012.92 1012.77 1012.44 1012.01 1011.55 1011.15 1010.86 1010.72 1010.74 1010.89 1011.12 1011.39 1011.64 1011.86 1012.02 1012.15 1012.27 1012.40 1012.58 1012.81 1013.08 1013.38 1013.66 1013.89 1014.04 1014.08 1014.03 1013.91 1013.74 1013.57 1013.43
1009.66 1009.54 1009.42 1009.37 1009.43 1009.65 1010.04 1010.59 1011.26 1011.95 1012.59 1013.10 1013.40 1013.47 1013.30 1012.95 1012.48 1012.00 1011.58 1011.28 1011.13 1011.15 1011.30 1011.53 1011.79 1012.02 1012.18 1012.29 1012.35 1012.38 1012.43 1012.53 1012.71 1012.93 1013.21 1013.48 1013.72 1013.88 1013.95 1013.92 1013.81 1013.66 1013.51 1013.38
1009.52 1009.35 1009.23 1009.20 1009.33 1009.63 1010.12 1010.78 1011.55 1012.34 1013.05 1013.60 1013.93 1014.01 1013.84 1013.48 1013.01 1012.51 1012.08 1011.78 1011.65 1011.67 1011.82 1012.05 1012.29 1012.49 1012.61 1012.66 1012.63 1012.58 1012.53 1012.54 1012.62 1012.78 1013.00 1013.24 1013.47 1013.63 1013.71 1013.70 1013.62 1013.49 1013.36 1013.24
1009.38 1009.22 1009.12 1009.14 1009.33 1009.70 1010.27 1010.99 1011.82 1012.66 1013.41 1013.98 1014.34 1014.43 1014.29 1013.95 1013.50 1013.03 1012.63 1012.35 1012.24 1012.28 1012.44 1012.66 1012.89 1013.06 1013.13 1013.11 1013.01 1012.86 1012.72 1012.63 1012.61 1012.68 1012.83 1013.02 1013.20 1013.35 1013.43 1013.44 1013.38 1013.26 1013.14 1013.03
1009.23 1009.12 1009.07 1009.14 1009.37 1009.78 1010.38 1011.11 1011.95 1012.78 1013.53 1014.12 1014.50 1014.63 1014.53 1014.26 1013.88 1013.48 1013.14 1012.93 1012.86 1012.92 1013.10 1013.33 1013.54 1013.68 1013.72 1013.64 1013.47 1013.25 1013.02 1012.83 1012.72 1012.70 1012.76 1012.88 1013.02 1013.13 1013.20 1013.20 1013.13 1013.02 1012.90 1012.79
1009.08 1009.02 1009.03 1009.14 1009.39 1009.79 1010.36 1011.06 1011.84 1012.62 1013.34 1013.93 1014.33 1014.52 1014.51 1014.33 1014.07 1013.79 1013.56 1013.43 1013.43 1013.54 1013.74 1013.97 1014.18 1014.30 1014.31 1014.20 1013.99 1013.71 1013.42 1013.16 1012.97 1012.86 1012.85 1012.90 1012.97 1013.05 1013.08 1013.06 1012.97 1012.85 1012.70 1012.57
1008.89 1008.91 1008.97 1009.11 1009.34 1009.70 1010.19 1010.78 1011.46 1012.16 1012.81 1013.38 1013.80 1014.06 1014.16 1014.13 1014.03 1013.90 1013.80 1013.79 1013.87 1014.04 1014.27 1014.52 1014.72 1014.84 1014.84 1014.73 1014.51 1014.22 1013.90 1013.60 1013.37 1013.21 1013.14 1013.13 1013.15 1013.17 1013.16 1013.10 1012.98 1012.81 1012.62 1012.44
1008.69 1008.79 1008.90 1009.04 1009.24 1009.52 1009.88 1010.34 1010.87 1011.45 1012.02 1012.54 1012.98 1013.32 1013.55 1013.68 1013.74 1013.79 1013.85 1013.96 1014.13 1014.36 1014.62 1014.88 1015.09 1015.22 1015.25 1015.16 1014.97 1014.71 1014.41 1014.13 1013.89 1013.72 1013.61 1013.56 1013.54 1013.52 1013.46 1013.35 1013.18 1012.96 1012.71 1012.47
1008.52 1008.70 1008.84 1008.98 1009.12 1009.29 1009.52 1009.81 1010.18 1010.60 1011.07 1011.54 1011.99 1012.40 1012.74 1013.02 1013.26 1013.47 1013.68 1013.91 1014.17 1014.46 1014.75 1015.03 1015.26 1015.42 1015.48 1015.45 1015.33 1015.14 1014.91 1014.68 1014.49 1014.33 1014.23 1014.16 1014.11 1014.04 1013.94 1013.78 1013.57 1013.30 1012.99 1012.67
1008.41 1008.66 1008.84 1008.96 1009.04 1009.10 1009.18 1009.30 1009.49 1009.76 1010.10 1010.50 1010.94 1011.39 1011.82 1012.23 1012.62 1012.98 1013.32 1013.66 1013.99 1014.33 1014.66 1014.96 1015.21 1015.41 1015.53 1015.57 1015.54 1015.46 1015.34 1015.20 1015.07 1014.97 1014.89 1014.82 1014.76 1014.67 1014.54 1014.35 1014.09 1013.78 1013.43 1013.05
1008.39 1008.69 1008.90 1009.01 1009.03 1008.99 1008.93 1008.90 1008.91 1009.02 1009.22 1009.53 1009.93 1010.39 1010.88 1011.39 1011.89 1012.37 1012.82 1013.24 1013.64 1014.02 1014.37 1014.69 1014.98 1015.22 1015.41 1015.54 1015.62 1015.65 1015.64 1015.61 1015.57 1015.53 1015.49 1015.45 1015.39 1015.29 1015.15 1014.94 1014.67 1014.34 1013.96 1013.55
1008.44 1008.77 1009.00 1009.11 1009.09 1008.97 1008.79 1008.61 1008.47 1008.41 1008.48 1008.68 1009.01 1009.45 1009.97 1010.54 1011.12 1011.69 1012.23 1012.72 1013.18 1013.59 1013.97 1014.32 1014.63 1014.92 1015.17 1015.38 1015.56 1015.70 1015.80 1015.87 1015.92 1015.94 1015.95 1015.93 1015.88 1015.79 1015.65 1015.45 1015.19 1014.86 1014.49 1014.08
1008.51 1008.87 1009.11 1009.22 1009.16 1008.98 1008.71 1008.40 1008.12 1007.92 1007.85 1007.95 1008.20 1008.60 1009.11 1009.71 1010.35 1010.99 1011.59 1012.16 1012.66 1013.12 1013.53 1013.91 1014.25 1014.58 1014.88 1015.16 1015.41 1015.63 1015.82 1015.97 1016.08 1016.16 1016.20 1016.20 1016.17 1016.10 1015.97 1015.79 1015.56 1015.27 1014.93 1014.55
1008.53 1008.90 1009.15 1009.24 1009.17 1008.94 1008.59 1008.19 1007.79 1007.47 1007.29 1007.27 1007.45 1007.79 1008.30 1008.92 1009.60 1010.29 1010.97 1011.60 1012.17 1012.68 1013.14 1013.54 1013.91 1014.27 1014.60 1014.92 1015.22 1015.48 1015.72 1015.91 1016.06 1016.16 1016.22 1016.24 1016.22 1016.16 1016.06 1015.91 1015.72 1015.49 1015.21 1014.88
1008.44 1008.79 1009.02 1009.10 1009.01 1008.74 1008.34 1007.87 1007.39 1006.98 1006.70 1006.60 1006.71 1007.02 1007.51 1008.15 1008.88 1009.64 1010.40 1011.11 1011.76 1012.33 1012.83 1013.28 1013.68 1014.04 1014.39 1014.72 1015.02 1015.30 1015.54 1015.74 1015.90 1016.00 1016.07 1016.09 1016.07 1016.02 1015.94 1015.83 1015.68 1015.50 1015.28 1015.02
1008.20 1008.50 1008.70 1008.74 1008.62 1008.33 1007.90 1007.38 1006.84 1006.38 1006.04 1005.89 1005.96 1006.25 1006.75 1007.42 1008.21 1009.05 1009.89 1010.70 1011.43 1012.08 1012.64 1013.12 1013.55 1013.92 1014.26 1014.57 1014.85 1015.11 1015.33 1015.51 1015.65 1015.74 1015.79 1015.81 1015.79 1015.74 1015.67 1015.58 1015.47 1015.34 1015.17 1014.97
1007.81 1008.03 1008.16 1008.16 1008.00 1007.68 1007.23 1006.70 1006.15 1005.66 1005.30 1005.14 1005.20 1005.50 1006.03 1006.75 1007.60 1008.53 1009.47 1010.37 1011.20 1011.92 1012.54 1013.06 1013.50 1013.87 1014.19 1014.47 1014.72 1014.93 1015.12 1015.27 1015.38 1015.45 1015.48 1015.48 1015.46 1015.40 1015.34 1015.25 1015.16 1015.04 1014.91 1014.75
1007.32 1007.42 1007.47 1007.40 1007.19 1006.85 1006.40 1005.88 1005.34 1004.87 1004.54 1004.40 1004.48 1004.82 1005.40 1006.17 1007.10 1008.10 1009.13 1010.11 1011.02 1011.82 1012.48 1013.03 1013.48 1013.84 1014.13 1014.38 1014.58 1014.76 1014.91 1015.03 1015.12 1015.17 1015.20 1015.18 1015.15 1015.08 1015.01 1014.91 1014.81 1014.69 1014.55 1014.40
1006.77 1006.74 1006.67 1006.52 1006.28 1005.93 1005.49 1005.00 1004.52 1004.10 1003.83 1003.74 1003.88 1004.27 1004.89 1005.72 1006.70 1007.77 1008.86 1009.91 1010.87 1011.71 1012.41 1012.97 1013.42 1013.76 1014.03 1014.24 1014.41 1014.57 1014.69 1014.80 1014.88 1014.93 1014.95 1014.94 1014.89 1014.82 1014.72 1014.59 1014.46 1014.30 1014.14 1013.96
1006.20 1006.03 1005.85 1005.63 1005.35 1005.01 1004.60 1004.18 1003.77 1003.44 1003.24 1003.23 1003.44 1003.88 1004.55 1005.42 1006.43 1007.53 1008.64 1009.72 1010.70 1011.55 1012.26 1012.82 1013.25 1013.58 1013.83 1014.02 1014.17 1014.31 1014.44 1014.55 1014.64 1014.71 1014.74 1014.73 1014.68 1014.59 1014.47 1014.31 1014.12 1013.91 1013.69 1013.46
1005.63 1005.33 1005.05 1004.78 1004.48 1004.16 1003.83 1003.48 1003.18 1002.96 1002.86 1002.93 1003.20 1003.69 1004.38 1005.26 1006.27 1007.35 1008.45 1009.50 1010.46 1011.30 1011.99 1012.53 1012.94 1013.25 1013.49 1013.67 1013.83 1013.97 1014.11 1014.25 1014.37 1014.46 1014.52 1014.53 1014.48 1014.38 1014.22 1014.01 1013.77 1013.50 1013.22 1012.92
1005.05 1004.65 1004.30 1003.99 1003.72 1003.45 1003.20 1002.96 1002.78 1002.66 1002.67 1002.82 1003.15 1003.66 1004.35 1005.21 1006.17 1007.20 1008.24 1009.24 1010.15 1010.93 1011.58 1012.09 1012.48 1012.78 1013.01 1013.20 1013.37 1013.54 1013.71 1013.87 1014.02 1014.15 1014.23 1014.25 1014.21 1014.09 1013.90 1013.66 1013.36 1013.04 1012.69 1012.34
Thickness
5704 5698 5697 5708 5718 5724 5726 5724 5723 5734 5752 5748 5741 5742 5752 5762 5764 5763 5764 5765 5766 5768 5773 5774 5773 5772 5771 5769 5766 5762 5758 5756 5752 5748 5744 5741 5738 5738 5737 5736 5733 5731 5728 5725
5693 5693 5711 5722 5723 5726 5725 5719 5721 5735 5751 5748 5741 5741 5750 5756 5760 5763 5763 5764 5766 5767 5768 5768 5770 5768 5767 5764 5763 5761 5758 5755 5751 5747 5745 5742 5739 5738 5736 5734 5732 5730 5727 5724
5691 5705 5723 5722 5720 5719 5722 5721 5726 5732 5742 5749 5740 5732 5741 5753 5760 5763 5765 5765 5766 5765 5764 5763 5764 5764 5763 5761 5760 5759 5757 5754 5750 5747 5744 5741 5738 5735 5733 5731 5729 5728 5726 5723
5702 5717 5722 5719 5720 5724 5716 5735 5740 5738 5729 5724 5733 5711 5730 5745 5749 5754 5757 5760 5760 5763 5764 5762 5762 5761 5760 5760 5761 5759 5757 5754 5750 5747 5742 5736 5732 5729 5730 5729 5728 5727 5725 5723
5705 5718 5720 5717 5724 5730 5730 5745 5743 5740 5731 5723 5727 5716 5722 5742 5739 5747 5754 5758 5760 5761 5762 5760 5760 5760 5760 5760 5758 5757 5755 5752 5749 5746 5741 5737 5733 5731 5731 5729 5727 5725 5724 5722
5718 5730 5731 5729 5737 5741 5742 5742 5740 5739 5729 5709 5722 5715 5710 5733 5741 5748 5754 5757 5759 5759 5760 5759 5760 5759 5757 5757 5756 5754 5751 5748 5747 5744 5741 5737 5733 5731 5728 5726 5724 5723 5722 5721
5711 5723 5734 5740 5730 5736 5738 5725 5708 5704 5702 5705 5731 5719 5716 5742 5755 5756 5755 5756 5758 5758 5757 5755 5754 5753 5752 5752 5751 5750 5747 5745 5744 5742 5740 5738 5734 5732 5728 5726 5724 5722 5721 5719
5702 5705 5728 5736 5733 5729 5735 5728 5703 5692 5696 5711 5732 5721 5730 5754 5759 5761 5760 5758 5758 5756 5755 5753 5752 5751 5750 5749 5749 5748 5745 5743 5742 5741 5739 5738 5735 5732 5729 5727 5725 5723 5721 5720
5710 5713 5738 5743 5746 5742 5733 5728 5729 5715 5714 5710 5723 5728 5736 5752 5752 5754 5754 5754 5753 5753 5753 5752 5751 5750 5749 5748 5747 5746 5744 5742 5741 5740 5738 5737 5735 5732 5729 5728 5726 5724 5723 5721
5728 5718 5734 5743 5746 5749 5746 5741 5731 5717 5705 5700 5713 5720 5721 5733 5739 5745 5747 5747 5749 5750 5750 5749 5748 5748 5748 5747 5746 5746 5744 5741 5740 5739 5737 5736 5734 5732 5730 5728 5725 5723 5722 5721
5740 5725 5728 5737 5734 5737 5742 5740 5737 5730 5731 5717 5704 5714 5747 5743 5744 5743 5744 5746 5746 5745 5745 5745 5745 5746 5746 5745 5744 5742 5741 5740 5738 5737 5736 5734 5733 5731 5730 5727 5725 5723 5722 5720
5744 5735 5726 5736 5753 5759 5755 5751 5746 5727 5732 5736 5720 5714 5756 5752 5750 5747 5744 5744 5744 5743 5743 5742 5742 5742 5741 5740 5740 5739 5739 5737 5736 5735 5733 5732 5731 5729 5727 5726 5724 5723 5721 5720
5743 5733 5717 5719 5734 5749 5749 5753 5754 5748 5743 5736 5719 5715 5751 5750 5747 5746 5743 5741 5740 5739 5739 5738 5737 5736 5735 5736 5736 5736 5736 5735 5734 5733 5730 5729 5728 5726 5725 5724 5723 5722 5720 5719
5744 5737 5727 5715 5729 5745 5744 5749 5753 5746 5735 5734 5732 5725 5737 5740 5739 5740 5739 5739 5738 5737 5735 5733 5731 5732 5732 5733 5733 5733 5732 5732 5731 5729 5727 5725 5724 5723 5722 5722 5721 5719 5718 5716
5749 5737 5741 5744 5751 5754 5750 5749 5750 5746 5745 5737 5736 5734 5736 5740 5740 5739 5739 5736 5734 5733 5732 5731 5729 5729 5729 5729 5729 5729 5729 5730 5729 5726 5723 5722 5722 5721 5719 5718 5717 5716 5714 5713
5750 5741 5744 5741 5750 5751 5746 5749 5750 5747 5747 5744 5739 5736 5748 5747 5744 5740 5737 5734 5730 5729 5729 5728 5728 5727 5727 5727 5726 5726 5726 5726 5725 5722 5719 5719 5717 5716 5714 5714 5713 5711 5710 5709
5747 5741 5735 5733 5747 5744 5732 5747 5748 5748 5751 5747 5735 5738 5746 5740 5738 5736 5735 5732 5729 5727 5727 5726 5726 5725 5725 5726 5725 5723 5723 5723 5721 5718 5715 5714 5713 5711 5710 5709 5707 5705 5705 5704
5743 5741 5737 5733 5733 5714 5738 5763 5760 5751 5750 5753 5748 5745 5744 5740 5739 5738 5736 5731 5727 5726 5724 5723 5723 5723 5724 5724 5723 5721 5720 5717 5715 5712 5710 5709 5707 5705 5704 5703 5701 5700 5700 5698
5747 5736 5729 5728 5722 5724 5738 5752 5753 5743 5737 5749 5744 5741 5740 5740 5733 5729 5733 5731 5727 5724 5723 5721 5721 5721 5720 5719 5719 5717 5714 5712 5708 5706 5704 5704 5702 5700 5698 5697 5695 5695 5693 5692
5740 5738 5726 5723 5715 5712 5732 5752 5760 5747 5725 5744 5744 5738 5735 5731 5714 5715 5727 5726 5723 5720 5719 5717 5716 5715 5713 5713 5712 5709 5706 5704 5700 5699 5699 5699 5697 5695 5693 5692 5691 5690 5688 5687
5720 5720 5716 5714 5714 5719 5737 5748 5749 5719 5721 5742 5742 5737 5732 5725 5722 5722 5723 5719 5717 5714 5712 5711 5709 5706 5705 5705 5704 5700 5698 5696 5695 5695 5693 5692 5691 5690 5689 5687 5685 5683 5682 5680
5722 5716 5715 5714 5707 5708 5735 5736 5729 5728 5740 5739 5735 5732 5727 5722 5721 5718 5714 5710 5708 5705 5704 5703 5700 5698 5697 5697 5695 5692 5689 5689 5689 5687 5686 5684 5684 5683 5683 5679 5677 5675 5673 5671
5726 5725 5723 5718 5711 5724 5733 5732 5734 5737 5731 5730 5727 5725 5720 5714 5710 5708 5705 5702 5700 5698 5696 5695 5692 5689 5689 5688 5686 5682 5682 5682 5680 5678 5677 5676 5676 5674 5673 5670 5667 5665 5663 5660
5725 5729 5721 5713 5713 5718 5723 5726 5727 5727 5724 5723 5721 5717 5712 5706 5703 5699 5696 5694 5691 5690 5688 5686 5683 5680 5678 5678 5677 5675 5674 5673 5671 5669 5667 5667 5666 5664 5662 5660 5657 5654 5651 5648
5711 5715 5712 5705 5707 5708 5710 5713 5715 5715 5714 5712 5710 5708 5703 5698 5694 5691 5688 5686 5683 5681 5679 5677 5674 5671 5669 5669 5667 5666 5665 5663 5660 5659 5657 5656 5654 5652 5650 5649 5646 5644 5642 5639
5707 5703 5699 5696 5704 5702 5700 5706 5707 5703 5701 5700 5697 5695 5694 5690 5686 5683 5679 5677 5674 5672 5670 5667 5664 5662 5661 5659 5657 5656 5654 5652 5648 5646 5644 5642 5641 5639 5637 5636 5635 5635 5632 5630